User: anonymous
Location: Unspecified
(0.0000°N, 0.0000°E)
Time: 11:59:49
(UTC+02:00)
Language:

Cosmos 1536 - Orbit

View from above orbital plane
View from above orbital plane
View from above satellite
View from above satellite

Ground track
Ground track

The orbit data is extracted from the following two-line orbital elements,

1 14699U 84013A   14237.56256759  .00001199  00000-0  88543-4 0  1610
2 14699 082.5243 242.1090 0011709 315.6264 044.4022 15.02339350658767
Epoch (UTC): 25 August 2014 13:30:05
Eccentricity: 0.0011709
inclination: 82.5243°
perigee height: 551 km
apogee height: 568 km
right ascension of ascending node: 242.1090°
argument of perigee: 315.6264°
revolutions per day: 15.02339350
mean anomaly at epoch: 44.4022°
orbit number at epoch: 65876

The dashed part of the orbit path shows where the satellite is in the earth's shadow,  

DLR